This demonstration page uses our WeatherBlox Daily Observations layout. Learn more.

Left ArrowRight Arrow

38.20091, -84.87328

Hourly Observations for June 6, 2021

Temp ( °F °C ) Dew Point ( °F °C ) Humidity (%) Winds ( mph kmh ) Pressure ( in mb ) Visibility ( mi km ) Precip ( " mm )
12:53 am 00:53 Clear 67 19.4 62 16.7 84 84 Calm 30.01 1016 10 16 0.00 0.00
1:53 am 01:53 Clear 67 19.4 62 16.7 84 84 Calm 30.01 1016 10 16 0.00 0.00
2:53 am 02:53 Mostly Cloudy 66 18.9 62 16.7 87 87 Calm 30.00 1016 10 16 0.00 0.00
3:53 am 03:53 Clear 65 18.3 61 16.1 87 87 Calm 30.00 1016 10 16 0.00 0.00
4:53 am 04:53 Mostly Cloudy 66 18.9 62 16.7 87 87 Calm 30.00 1016 10 16 0.00 0.00
5:53 am 05:53 Mostly Cloudy 68 20 63 17.2 84 84 Calm 30.01 1016 10 16 0.00 0.00
6:53 am 06:53 Mostly Cloudy 67 19.4 63 17.2 87 87 Calm 30.03 1017 10 16 0.00 0.00
7:53 am 07:53 Cloudy 70 21.1 65 18.3 84 84 Calm 30.05 1018 10 16 0.00 0.00
8:53 am 08:53 Partly Cloudy 73 22.8 66 18.9 79 79 SSW 6 9 30.07 1018 10 16 0.00 0.00
9:53 am 09:53 Cloudy 72 22.2 68 20 87 87 SW 5 7 30.08 1019 10 16 0.01 0.25
10:53 am 10:53 Mostly Cloudy 75 23.9 68 20 79 79 S 3 6 30.07 1018 10 16 0.01 0.25
11:53 am 11:53 Mostly Cloudy 79 26.1 68 20 69 69 SSW 5 7 30.07 1018 10 16 0.00 0.00
12:53 pm 12:53 Cloudy 78 25.6 69 20.6 74 74 SSE 7 11 30.07 1018 10 16 0.00 0.00
1:53 pm 13:53 Cloudy 81 27.2 69 20.6 67 67 SE 8 13 30.05 1018 10 16 0.00 0.00
2:53 pm 14:53 Mostly Cloudy 83 28.3 68 20 61 61 SSE 8 13 30.03 1017 10 16 0.00 0.00
3:53 pm 15:53 Mostly Sunny 83 28.3 67 19.4 59 59 S 6 9 30.01 1016 10 16 0.00 0.00
4:53 pm 16:53 Mostly Cloudy 84 28.9 67 19.4 57 57 S 13 20 30.00 1016 10 16 0.00 0.00
5:53 pm 17:53 Partly Cloudy 82 27.8 67 19.4 60 60 S 17 28 30.00 1016 10 16 0.00 0.00
6:53 pm 18:53 Cloudy 78 25.6 67 19.4 69 69 SSW 6 9 30.00 1016 10 16 0.00 0.00
7:53 pm 19:53 Mostly Sunny 76 24.4 67 19.4 74 74 SE 5 7 30.01 1016 10 16 0.00 0.00
8:53 pm 20:53 Sunny 74 23.3 67 19.4 79 79 SE 3 6 30.01 1016 10 16 0.00 0.00
9:53 pm 21:53 Mostly Clear 72 22.2 67 19.4 84 84 SE 3 6 30.02 1017 10 16 0.00 0.00
10:53 pm 22:53 Cloudy 73 22.8 67 19.4 81 81 Calm 30.02 1017 10 16 0.00 0.00
11:53 pm 23:53 Cloudy 73 22.8 68 20 84 84 ESE 6 9 30.02 1017 10 16 0.00 0.00

Powered by AerisWeather